Vorticity
7 7 6 6 6 7 8 10 10 10 10 9 10 10 11 12 12 11 9 3 7 1 2 5 5 -2 1 -1 1 8 -1 6 8 1 7 3 -1 6 3 4 6 11 10 8 -0
8 8 8 8 8 8 8 8 9 10 10 10 10 10 11 13 15 17 9 3 9 5 3 5 1 1 -0 -0 7 8 17 2 8 4 10 8 2 8 7 7 7 13 17 14 12
9 9 9 8 8 8 8 8 8 8 9 9 9 10 12 12 16 13 5 5 8 5 4 2 -2 -1 1 -2 4 11 6 3 3 3 4 6 14 2 6 7 8 10 14 -1 7
8 9 9 9 9 9 9 9 9 8 7 7 8 9 10 12 9 14 18 6 10 3 3 2 -2 1 -3 -2 10 7 13 8 4 -3 -1 2 5 10 1 5 6 8 16 13 8
8 8 8 9 9 9 10 9 9 10 10 9 7 6 7 11 11 11 18 5 19 3 3 0 -1 1 4 -0 8 3 10 9 5 -6 1 1 3 2 15 11 6 11 3 13 11
8 8 8 8 8 8 9 9 9 9 9 10 10 11 9 5 1 17 11 6 19 1 2 -4 2 2 4 2 8 -8 12 9 8 4 1 2 -3 14 1 8 7 8 5 1 7
8 8 8 8 8 8 8 8 9 9 8 8 9 10 11 6 10 12 17 11 12 14 1 -2 1 1 1 -2 3 -0 7 7 4 4 1 0 8 9 6 11 16 8 7 6 10
8 8 8 8 8 8 7 7 8 9 9 9 8 7 10 17 8 4 7 13 16 27 -3 -1 4 1 3 1 4 1 9 9 8 0 21 7 0 14 5 11 14 8 9 7 5
8 8 8 8 8 8 8 8 7 8 9 10 9 8 8 8 6 9 9 13 14 20 6 2 0 2 1 10 -6 11 -8 -4 0 19 1 27 -1 -9 2 3 6 8 4 6 8
8 8 8 8 8 9 7 8 8 7 7 7 9 9 11 6 5 4 8 11 11 16 6 -1 -1 3 1 -7 11 17 15 3 11 -1 24 10 12 12 1 2 6 11 8 5 13
8 9 8 9 9 9 9 7 7 8 14 6 -2 6 9 11 8 10 7 9 11 10 5 14 -5 6 7 1 12 -1 -5 0 10 11 8 25 9 20 5 -3 3 5 5 17 10
8 9 9 7 9 9 10 8 9 5 15 11 6 10 7 6 7 9 10 10 11 8 11 9 -3 10 4 1 8 13 2 5 12 -17 9 14 15 -5 11 4 -3 7 6 9 16
7 8 10 10 9 9 10 11 10 8 10 22 17 16 13 10 8 11 10 11 11 11 13 8 -2 29 21 7 13 8 4 4 3 -4 4 30 0 9 10 8 9 4 6 19 12
7 8 9 11 8 10 12 12 12 9 15 12 13 15 17 14 5 4 8 24 12 13 10 20 20 -6 1 16 0 8 -1 -5 10 14 14 2 -25 21 32 -3 22 13 8 21 12
8 9 9 9 11 10 11 10 12 10 8 14 10 20 10 -0 13 19 9 7 5 16 2 -3 22 20 13 3 -0 23 -0 3 7 18 16 -1 24 -6 33 31 14 14 15 21 5
10 10 10 10 12 11 8 11 11 8 8 12 11 5 9 13 2 12 11 4 -3 7 7 15 -8 -2 15 -13 4 -4 3 8 20 9 30 9 16 22 0 8 14 11 10 12 10
12 12 11 12 12 11 8 11 9 6 16 -3 2 11 8 13 -4 17 16 9 -4 19 19 16 23 14 0 0 -2 -1 3 20 23 20 -10 4 21 9 -14 -11 22 22 23 22 13
13 14 14 12 13 13 10 10 7 1 14 17 17 22 9 16 13 -17 -6 9 2 -5 -22 15 18 51 29 11 -5 8 -4 -20 8 6 -1 -25 11 0 -7 15 23 5 14 14 14
14 15 16 12 14 11 12 8 9 7 -2 2 6 19 6 6 7 30 9 9 0 17 10 -1 12 4 13 31 22 11 4 7 18 23 14 17 -5 25 22 28 7 11 8 22 16
14 14 13 16 14 11 12 -11 0 -2 2 1 4 17 31 -3 13 11 24 8 9 28 23 3 7 4 3 24 11 5 3 11 11 2 9 21 20 -3 30 13 4 11 8 -1 10
13 15 7 11 10 13 8 10 9 9 8 14 4 10 1 -1 13 4 6 3 12 21 9 23 13 7 -1 5 -4 18 23 13 21 0 3 4 7 10 -10 38 15 10 -4 10 -1
16 11 7 1 6 7 9 9 10 11 14 5 6 12 11 3 5 10 9 7 2 3 5 11 3 4 14 1 -3 -1 1 18 -23 2 8 4 -4 -9 22 14 16 9 10 6 2
13 10 7 5 2 3 -2 6 13 9 9 11 1 7 16 12 2 18 14 12 3 -6 7 11 8 22 33 30 20 7 10 -7 6 8 6 -13 -13 -10 15 13 20 17 17 13 8
14 10 10 4 3 4 -0 7 8 5 11 11 8 2 7 13 6 5 7 1 7 5 -5 -10 12 -6 -21 -21 -13 13 23 15 22 14 5 -15 9 24 2 12 12 5 8 -5 12
11 12 3 5 16 4 2 -5 -3 3 4 4 8 7 9 13 10 11 10 7 8 15 19 19 11 10 10 9 1 19 2 26 20 11 3 4 20 8 1 23 3 5 -0 14 8
17 12 11 8 8 7 8 6 3 3 2 8 10 8 11 11 9 5 9 6 4 8 11 9 12 14 31 15 14 9 19 4 14 2 12 5 14 9 15 16 8 10 4 4 14
13 15 16 15 17 18 16 14 11 13 14 13 9 9 9 9 9 8 5 4 -1 -0 3 3 5 -3 19 18 16 37 16 7 -1 6 6 4 2 -2 8 8 6 0 3 8 11
Height
3164 3163 3163 3162 3161 3160 3160 3160 3160 3160 3161 3161 3162 3162 3163 3165 3167 3170 3174 3177 3178 3179 3181 3182 3183 3184 3184 3184 3184 3182 3183 3181 3181 3180 3181 3181 3180 3180 3180 3179 3178 3177 3177 3176 3175
3163 3163 3162 3161 3161 3160 3160 3160 3160 3160 3160 3160 3161 3161 3162 3163 3165 3169 3174 3174 3177 3179 3181 3182 3184 3184 3185 3185 3184 3183 3182 3182 3182 3182 3181 3181 3181 3180 3180 3179 3178 3177 3176 3175 3174
3162 3162 3161 3161 3160 3159 3159 3159 3159 3159 3160 3160 3160 3161 3161 3162 3165 3166 3169 3172 3175 3178 3181 3182 3184 3185 3185 3185 3184 3183 3183 3183 3183 3182 3182 3181 3180 3180 3179 3178 3177 3177 3175 3175 3174
3162 3162 3161 3160 3160 3159 3159 3159 3159 3159 3160 3160 3161 3161 3161 3162 3166 3166 3169 3172 3175 3178 3181 3182 3183 3185 3185 3185 3184 3183 3183 3183 3182 3181 3183 3181 3180 3180 3179 3179 3178 3176 3175 3175 3174
3162 3161 3161 3160 3159 3159 3158 3158 3158 3159 3159 3160 3161 3161 3162 3163 3164 3165 3168 3171 3174 3177 3180 3182 3183 3184 3185 3184 3184 3183 3183 3182 3182 3181 3182 3181 3180 3178 3177 3177 3178 3177 3176 3175 3174
3162 3161 3160 3160 3159 3158 3158 3158 3158 3158 3159 3160 3160 3161 3162 3164 3165 3166 3167 3170 3173 3177 3179 3181 3183 3183 3183 3184 3184 3183 3183 3181 3181 3181 3180 3180 3179 3177 3177 3177 3177 3177 3177 3176 3175
3161 3161 3160 3159 3158 3158 3158 3158 3158 3158 3159 3159 3160 3161 3162 3164 3164 3166 3168 3170 3172 3175 3178 3180 3181 3182 3182 3183 3183 3183 3182 3181 3181 3181 3179 3180 3178 3175 3176 3176 3176 3177 3176 3176 3175
3161 3160 3159 3158 3158 3157 3157 3157 3158 3158 3158 3159 3159 3160 3162 3163 3164 3166 3168 3169 3171 3174 3176 3178 3179 3181 3182 3182 3183 3183 3183 3182 3182 3181 3181 3180 3176 3177 3176 3175 3175 3175 3176 3176 3176
3162 3160 3159 3158 3157 3156 3156 3156 3156 3157 3158 3158 3159 3160 3162 3162 3163 3165 3167 3168 3170 3172 3175 3176 3178 3180 3181 3182 3183 3183 3182 3182 3182 3181 3179 3178 3174 3175 3175 3174 3173 3174 3175 3175 3176
3161 3160 3158 3157 3156 3156 3155 3155 3155 3156 3157 3157 3158 3161 3161 3161 3162 3164 3166 3167 3168 3171 3173 3175 3177 3178 3180 3182 3183 3183 3182 3181 3180 3181 3177 3176 3173 3173 3173 3173 3172 3171 3172 3174 3176
3160 3159 3157 3156 3155 3154 3154 3154 3157 3157 3155 3156 3157 3157 3159 3161 3162 3163 3165 3166 3168 3169 3171 3173 3175 3175 3180 3181 3181 3182 3182 3180 3179 3180 3176 3173 3172 3171 3170 3170 3170 3170 3170 3172 3175
3160 3158 3156 3155 3154 3153 3153 3152 3153 3155 3154 3154 3154 3156 3157 3158 3160 3161 3163 3166 3167 3168 3169 3173 3171 3176 3178 3179 3179 3180 3180 3179 3177 3177 3174 3171 3170 3169 3168 3166 3167 3167 3167 3170 3173
3159 3157 3155 3154 3153 3153 3152 3152 3152 3152 3152 3152 3152 3153 3155 3158 3159 3160 3163 3163 3165 3167 3168 3169 3173 3173 3174 3176 3177 3178 3179 3177 3178 3174 3172 3169 3166 3166 3165 3163 3163 3163 3165 3167 3169
3157 3155 3154 3153 3154 3151 3151 3151 3151 3151 3150 3152 3151 3152 3154 3155 3158 3159 3161 3164 3164 3166 3168 3169 3170 3170 3172 3173 3175 3175 3177 3176 3174 3174 3172 3171 3164 3159 3159 3159 3157 3159 3161 3163 3166
3154 3153 3152 3151 3151 3151 3151 3150 3150 3151 3151 3153 3152 3152 3152 3157 3158 3157 3160 3161 3163 3165 3167 3166 3166 3168 3169 3172 3173 3173 3173 3172 3171 3171 3170 3170 3168 3156 3155 3155 3155 3156 3158 3160 3164
3151 3151 3149 3149 3149 3149 3149 3149 3150 3153 3151 3152 3152 3152 3153 3155 3156 3157 3158 3161 3162 3164 3164 3163 3165 3165 3167 3169 3170 3171 3170 3170 3168 3168 3168 3167 3167 3155 3155 3155 3155 3155 3156 3158 3161
3148 3147 3147 3147 3147 3147 3148 3149 3152 3150 3152 3153 3152 3152 3153 3154 3156 3156 3157 3158 3160 3163 3162 3161 3160 3162 3164 3165 3166 3168 3170 3170 3168 3167 3166 3164 3163 3155 3154 3154 3153 3153 3153 3156 3159
3145 3144 3144 3144 3145 3146 3147 3150 3150 3150 3150 3150 3149 3149 3151 3153 3154 3155 3156 3158 3159 3161 3161 3161 3156 3155 3158 3160 3163 3165 3167 3168 3170 3169 3164 3162 3159 3153 3152 3151 3150 3152 3153 3155 3158
3142 3141 3141 3142 3143 3144 3147 3148 3148 3149 3149 3148 3148 3148 3150 3152 3154 3154 3155 3155 3157 3158 3161 3159 3156 3156 3157 3158 3161 3161 3161 3163 3163 3163 3162 3159 3156 3151 3150 3149 3149 3151 3153 3155 3157
3140 3140 3140 3140 3141 3143 3145 3146 3147 3147 3148 3149 3148 3149 3150 3151 3153 3153 3153 3154 3154 3155 3157 3157 3156 3154 3154 3155 3157 3156 3158 3159 3159 3162 3162 3155 3153 3150 3148 3148 3149 3151 3154 3155 3157
3139 3139 3139 3139 3140 3142 3143 3145 3145 3147 3147 3149 3148 3149 3150 3150 3151 3151 3152 3152 3152 3152 3153 3153 3155 3150 3152 3152 3152 3152 3150 3153 3155 3155 3154 3157 3150 3148 3148 3147 3149 3151 3153 3154 3156
3136 3137 3138 3139 3141 3140 3141 3142 3144 3145 3145 3146 3147 3147 3147 3149 3149 3150 3150 3150 3150 3150 3150 3151 3150 3146 3145 3147 3147 3148 3148 3148 3148 3151 3150 3151 3146 3146 3146 3146 3148 3149 3150 3152 3154
3134 3135 3136 3137 3138 3139 3140 3141 3142 3143 3143 3144 3145 3145 3145 3146 3147 3146 3147 3147 3147 3148 3148 3147 3146 3144 3141 3142 3141 3140 3142 3143 3143 3144 3144 3147 3144 3144 3145 3145 3144 3145 3147 3149 3151
3133 3134 3135 3135 3136 3137 3138 3139 3141 3141 3141 3141 3142 3143 3143 3144 3144 3144 3145 3145 3145 3145 3145 3145 3143 3142 3141 3139 3139 3137 3136 3137 3138 3137 3137 3138 3139 3141 3143 3143 3145 3145 3145 3147 3149
3130 3131 3132 3132 3133 3135 3136 3136 3137 3139 3139 3139 3139 3140 3141 3141 3140 3140 3140 3141 3141 3141 3141 3140 3138 3137 3137 3135 3133 3131 3132 3130 3130 3132 3131 3133 3134 3137 3138 3140 3141 3143 3143 3144 3146
3129 3130 3129 3130 3130 3132 3132 3132 3134 3135 3136 3136 3136 3136 3136 3136 3136 3136 3135 3136 3136 3137 3136 3135 3134 3132 3130 3130 3128 3126 3127 3126 3127 3127 3128 3129 3130 3131 3133 3135 3137 3138 3139 3141 3142
3128 3127 3128 3128 3128 3129 3129 3129 3130 3130 3132 3131 3130 3131 3131 3131 3131 3132 3131 3131 3131 3129 3131 3130 3129 3128 3126 3126 3124 3122 3122 3121 3122 3123 3123 3124 3128 3128 3129 3130 3131 3132 3134 3136 3138